Mason City, IA

11:09 PM CST on November 19, 2017 (GMT -0600)
Mason City Municipal

Weather History for KMCW - July, 2013

Change the Weather History Date:

Saturday, July 20, 2013

  Actual Average Record
Temperature  
Mean Temperature 72 °F 72 °F  
Max Temperature 85 °F 83 °F 104 °F (1930)
Min Temperature 59 °F 61 °F 45 °F (1970)
Degree Days  
Heating Degree Days 0 0  
Month to date heating degree days 0 0  
Since 1 June heating degree days 53 44  
Since 1 July heating degree days 0 0  
Cooling Degree Days 7 7  
Month to date cooling degree days 190 142  
Year to date cooling degree days 373 315  
Since 1 June cooling degree days 336 280  
Growing Degree Days 22 (Base 50)    
Moisture  
Dew Point 60 °F    
Average Humidity 67    
Maximum Humidity 90    
Minimum Humidity 43    
Precipitation  
Precipitation 0.00 in 0.15 in 2.04 in (1912)
Month to date precipitation 1.57 3.05  
Year to date precipitation 29.42 20.67  
Snow  
Snow 0.00 in 0.00 in 0.00 in (2002)
Month to date snowfall 0.0 0.0  
Since 1 June snowfall 0.0 0.0  
Since 1 July snowfall 0.0 0.0  
Snow Depth 0.00 in    
Sea Level Pressure  
Sea Level Pressure 29.92 in    
Wind  
Wind Speed 5 mph (WNW)    
Max Wind Speed 15 mph    
Max Gust Speed 17 mph    
Visibility 10 miles    
Events      
T = Trace of Precipitation, MM = Missing Value Source: NWS Daily Summary

Daily Weather History Graph

Daily Weather History Graph

Search for Another Location

Airport or City:

Trip Planner

Search our weather history database for the weather conditions in past years. The results will help you decide how hot, cold, wet, or windy it might be!

Date:

Astronomy

Jul. 20, 2013 Rise Set
Actual Time 5:51 AM CDT 8:46 PM CDT
Civil Twilight 5:18 AM CDT 9:20 PM CDT
Nautical Twilight 4:35 AM CDT 10:03 PM CDT
Astronomical Twilight 3:45 AM CDT 10:52 PM CDT
Moon 6:50 PM CDT 3:32 AM CDT
Length of Visible Light 16h 02m
Length of Day
14h 54m
Waxing Gibbous, 94% of the Moon is Illuminated
Jul 20
Waxing Gibbous
Jul 22
Full
Jul 29
Last Quarter
Aug 6
New
Aug 14
First Quarter

Hourly Weather History & Observations

Time (CDT) Temp. Heat Index Dew Point Humidity Pressure Visibility Wind Dir Wind Speed Gust Speed Precip Events Conditions
12:53 AM 64.0 °F - 59.0 °F 84% 29.93 in 10.0 mi West 4.6 mph - N/A   Clear
1:53 AM 62.1 °F - 57.9 °F 86% 29.93 in 10.0 mi West 4.6 mph - N/A   Clear
2:53 AM 62.1 °F - 57.9 °F 86% 29.91 in 10.0 mi West 3.5 mph - N/A   Clear
3:53 AM 61.0 °F - 57.0 °F 87% 29.91 in 10.0 mi West 5.8 mph - N/A   Clear
4:53 AM 62.1 °F - 57.9 °F 86% 29.90 in 10.0 mi West 5.8 mph - N/A   Clear
5:53 AM 59.0 °F - 55.9 °F 90% 29.91 in 10.0 mi WNW 4.6 mph - N/A   Clear
6:53 AM 64.0 °F - 59.0 °F 84% 29.92 in 10.0 mi West 3.5 mph - N/A   Clear
7:53 AM 66.9 °F - 60.1 °F 79% 29.93 in 10.0 mi WNW 3.5 mph - N/A   Clear
8:53 AM 73.9 °F - 62.1 °F 66% 29.95 in 10.0 mi West 6.9 mph - N/A   Clear
9:53 AM 78.1 °F - 62.1 °F 58% 29.96 in 10.0 mi West 10.4 mph - N/A   Clear
10:53 AM 81.0 °F 81.9 °F 62.1 °F 52% 29.93 in 10.0 mi WNW 9.2 mph - N/A   Clear
11:53 AM 81.0 °F 81.7 °F 61.0 °F 50% 29.94 in 10.0 mi West 6.9 mph - N/A   Clear
12:53 PM 82.0 °F 83.0 °F 62.1 °F 51% 29.94 in 10.0 mi WNW 6.9 mph - N/A   Clear
1:53 PM 82.9 °F 83.2 °F 60.1 °F 46% 29.93 in 10.0 mi NW 8.1 mph - N/A   Mostly Cloudy
2:53 PM 84.0 °F 84.0 °F 60.1 °F 44% 29.91 in 10.0 mi Calm Calm - N/A   Clear
3:53 PM 82.9 °F 84.0 °F 63.0 °F 51% 29.93 in 10.0 mi WNW 6.9 mph - N/A   Mostly Cloudy
4:53 PM 82.0 °F 82.4 °F 60.1 °F 47% 29.91 in 10.0 mi WNW 6.9 mph - N/A   Clear
5:53 PM 82.9 °F 82.6 °F 57.9 °F 42% 29.89 in 10.0 mi WNW 6.9 mph - N/A   Clear
6:53 PM 80.1 °F 80.7 °F 59.0 °F 48% 29.88 in 10.0 mi WNW 5.8 mph - N/A   Clear
7:53 PM 79.0 °F - 61.0 °F 54% 29.89 in 10.0 mi WNW 4.6 mph - N/A   Clear
8:53 PM 72.0 °F - 62.1 °F 71% 29.89 in 10.0 mi North 4.6 mph - N/A   Clear
9:53 PM 68.0 °F - 62.1 °F 81% 29.90 in 10.0 mi North 6.9 mph - N/A   Clear
10:53 PM 68.0 °F - 62.1 °F 81% 29.93 in 10.0 mi Calm Calm - N/A   Clear
11:53 PM 66.0 °F - 62.1 °F 87% 29.92 in 10.0 mi Calm Calm - N/A   Clear